Date String (YYYY-MM-DD hh:mm:ss) UTC,Instrument flags,absolute air pressure of the measurement (hPa),sample flow rate (lpm),inlet stack bypass flow (lpm),air temperature of the measurement (°C),ambient temperature measured by the external sensor (°C),aerosol sample conditioner tube jacket temperature (°C),OPC LED temperature (°C),internal box temperature (°C),relative humidity of the measurement (%),span deviation,mass concentration of particles derived from Lorenz-Mie calculation of OPC scattering (μg/m³),mass concentration of particles derived from Lorenz-Mie calculation of OPC scattering (μg/m³),mass concentration of particles derived from Lorenz-Mie calculation of OPC scattering (μg/m³)
DateTimeUTC,F1_M11,P_M11,Q1_M11,Q2_M11,T1_M11,T2_M11,T3_M11,T4_M11,T5_M11,U1_M11,ZSPAN_M11,X0_M11,X2_M11,X1_M11
2024-05-29 02:00:00,SystemResetWarning,0832.0,5.00,000.00,030.2,028.1,000.0,038.5,031.3,018.2,0000.0,0009.95,0003.90,0002.77
2024-05-29 02:01:00,SystemResetWarning,0832.0,5.01,000.00,029.8,026.4,000.0,038.5,030.5,018.7,0000.0,0010.12,0003.90,0002.79
2024-05-29 02:02:00,SystemResetWarning,0832.0,5.02,000.00,029.6,026.6,000.0,038.4,030.4,018.8,0000.0,0009.84,0003.89,0002.79
2024-05-29 02:03:00,SystemResetWarning,0832.0,4.99,000.00,029.5,027.0,000.0,038.3,030.6,018.7,0000.0,0010.19,0003.92,0002.82
2024-05-29 02:04:00,SystemResetWarning,0832.1,5.01,000.00,029.6,027.4,000.0,038.2,030.9,018.7,0000.0,0010.23,0003.95,0002.83
2024-05-29 02:05:00,SystemResetWarning,0832.0,5.00,000.00,029.6,027.8,000.0,038.1,031.1,018.6,0000.0,0010.41,0003.99,0002.85
2024-05-29 02:06:00,SystemResetWarning,0832.1,5.00,000.00,029.6,028.1,000.0,038.1,031.2,018.6,0000.0,0010.48,0004.00,0002.85
2024-05-29 02:07:00,SystemResetWarning,0832.1,5.00,000.00,029.7,028.4,000.0,038.1,031.3,018.5,0000.0,0010.27,0003.96,0002.86
2024-05-29 02:08:00,SystemResetWarning,0832.1,5.00,000.00,029.7,028.6,000.0,038.0,031.4,018.5,0000.0,0010.43,0003.98,0002.87
2024-05-29 02:09:00,SystemResetWarning,0832.2,5.00,000.00,029.8,028.8,000.0,038.0,031.4,018.5,0000.0,0010.46,0003.94,0002.86
2024-05-29 02:10:00,SystemResetWarning,0832.2,5.00,000.00,029.8,029.0,000.0,038.1,031.5,018.5,0000.0,0009.85,0003.90,0002.87
2024-05-29 02:11:00,SystemResetWarning,0832.2,5.00,000.00,029.9,029.1,000.0,038.1,031.6,018.4,0000.0,0009.73,0003.89,0002.87
2024-05-29 02:12:00,SystemResetWarning,0832.2,5.01,000.00,029.9,029.2,000.0,038.1,031.7,018.3,0000.0,0010.03,0003.92,0002.88
2024-05-29 02:13:00,SystemResetWarning,0832.2,5.00,000.00,030.0,029.3,000.0,038.1,031.7,018.4,0000.0,0010.19,0003.96,0002.90
2024-05-29 02:14:00,SystemResetWarning,0832.2,5.01,000.00,030.0,029.4,000.0,038.1,031.8,018.4,0000.0,0009.79,0003.94,0002.90
2024-05-29 02:15:00,SystemResetWarning,0832.2,4.99,000.00,030.1,029.5,000.0,038.2,031.9,018.3,0000.0,0009.62,0003.90,0002.91
2024-05-29 02:16:00,SystemResetWarning,0832.1,4.99,000.00,030.1,029.6,000.0,038.2,031.9,018.2,0000.0,0009.64,0003.91,0002.90
2024-05-29 02:17:00,SystemResetWarning,0832.2,5.01,000.00,030.2,029.6,000.0,038.2,032.0,018.1,0000.0,0009.67,0003.90,0002.88
2024-05-29 02:18:00,SystemResetWarning,0832.2,5.01,000.00,030.2,029.7,000.0,038.3,032.0,018.0,0000.0,0010.04,0003.93,0002.88
2024-05-29 02:19:00,SystemResetWarning,0832.2,4.99,000.00,030.3,029.7,000.0,038.3,032.0,017.9,0000.0,0010.27,0003.96,0002.89
2024-05-29 02:20:00,SystemResetWarning,0832.2,5.01,000.00,030.3,029.8,000.0,038.3,032.1,017.9,0000.0,0009.94,0003.99,0002.89
2024-05-29 02:21:00,SystemResetWarning,0832.3,5.00,000.00,030.4,029.8,000.0,038.4,032.1,017.9,0000.0,0009.97,0004.00,0002.89
2024-05-29 02:22:00,SystemResetWarning,0832.4,4.99,000.00,030.4,029.9,000.0,038.4,032.1,017.8,0000.0,0009.77,0004.02,0002.88
2024-05-29 02:23:00,SystemResetWarning,0832.5,5.00,000.00,030.5,029.9,000.0,038.4,032.2,017.8,0000.0,0009.62,0003.98,0002.86
2024-05-29 02:24:00,SystemResetWarning,0832.5,5.00,000.00,030.5,030.0,000.0,038.5,032.2,017.7,0000.0,0009.45,0003.97,0002.85
2024-05-29 02:25:00,SystemResetWarning,0832.5,5.00,000.00,030.5,030.0,000.0,038.5,032.3,017.5,0000.0,0009.31,0003.97,0002.85
2024-05-29 02:26:00,SystemResetWarning,0832.5,5.00,000.00,030.4,028.4,000.0,038.6,031.5,017.7,0000.0,0009.35,0003.97,0002.85
2024-05-29 02:27:00,SystemResetWarning,0832.5,5.01,000.00,029.9,026.3,000.0,038.6,030.5,018.5,0000.0,0009.43,0003.97,0002.86
2024-05-29 02:28:00,SystemResetWarning,0832.6,5.01,000.00,029.7,026.4,000.0,038.5,030.3,019.1,0000.0,0009.56,0003.97,0002.87
2024-05-29 02:29:00,SystemResetWarning,0832.5,4.99,000.00,029.6,026.8,000.0,038.4,030.5,019.3,0000.0,0009.71,0003.93,0002.87
2024-05-29 02:30:00,SystemResetWarning,0832.6,4.99,000.00,029.6,027.3,000.0,038.3,030.8,019.3,0000.0,0010.26,0003.88,0002.86
2024-05-29 02:31:00,SystemResetWarning,0832.7,5.00,000.00,029.6,027.7,000.0,038.2,031.0,019.3,0000.0,0010.32,0003.86,0002.86
2024-05-29 02:32:00,SystemResetWarning,0832.6,5.01,000.00,029.7,028.0,000.0,038.2,031.2,019.3,0000.0,0010.61,0003.89,0002.86
2024-05-29 02:33:00,SystemResetWarning,0832.7,5.00,000.00,029.7,028.3,000.0,038.2,031.3,019.2,0000.0,0010.97,0003.90,0002.85
2024-05-29 02:34:00,SystemResetWarning,0832.7,4.99,000.00,029.7,028.6,000.0,038.2,031.4,019.1,0000.0,0010.85,0003.92,0002.85
2024-05-29 02:35:00,SystemResetWarning,0832.7,5.00,000.00,029.8,028.8,000.0,038.2,031.5,019.3,0000.0,0011.86,0003.94,0002.85
2024-05-29 02:36:00,SystemResetWarning,0832.7,5.00,000.00,029.9,029.0,000.0,038.2,031.6,019.3,0000.0,0012.88,0003.98,0002.85
2024-05-29 02:37:00,SystemResetWarning,0832.7,5.00,000.00,029.9,029.1,000.0,038.2,031.6,019.2,0000.0,0013.91,0003.95,0002.84
2024-05-29 02:38:00,SystemResetWarning,0832.7,5.00,000.00,030.0,029.2,000.0,038.2,031.7,019.3,0000.0,0014.19,0003.96,0002.84
2024-05-29 02:39:00,SystemResetWarning,0832.6,5.01,000.00,030.0,029.4,000.0,038.2,031.8,019.3,0000.0,0014.35,0003.98,0002.84
2024-05-29 02:40:00,SystemResetWarning,0832.7,5.00,000.00,030.1,029.5,000.0,038.2,031.9,019.4,0000.0,0014.10,0004.02,0002.84
2024-05-29 02:41:00,SystemResetWarning,0832.6,5.00,000.00,030.1,029.5,000.0,038.3,031.9,019.3,0000.0,0013.35,0004.07,0002.83
2024-05-29 02:42:00,SystemResetWarning,0832.6,5.00,000.00,030.2,029.6,000.0,038.3,032.0,019.3,0000.0,0014.25,0004.14,0002.85
2024-05-29 02:43:00,SystemResetWarning,0832.6,5.00,000.00,030.2,029.7,000.0,038.3,032.0,019.3,0000.0,0015.05,0004.12,0002.85
2024-05-29 02:44:00,SystemResetWarning,0832.6,5.00,000.00,030.3,029.7,000.0,038.4,032.0,019.3,0000.0,0015.15,0004.12,0002.86
2024-05-29 02:45:00,SystemResetWarning,0832.6,5.00,000.00,030.3,029.8,000.0,038.4,032.1,019.4,0000.0,0016.58,0004.15,0002.86
2024-05-29 02:46:00,SystemResetWarning,0832.6,5.00,000.00,030.4,029.8,000.0,038.4,032.1,019.5,0000.0,0016.50,0004.12,0002.88
2024-05-29 02:47:00,SystemResetWarning,0832.6,5.00,000.00,030.4,029.9,000.0,038.5,032.2,019.6,0000.0,0016.04,0004.08,0002.88
2024-05-29 02:48:00,SystemResetWarning,0832.6,5.00,000.00,030.4,029.9,000.0,038.5,032.2,019.6,0000.0,0015.46,0004.10,0002.90
2024-05-29 02:49:00,SystemResetWarning,0832.6,5.00,000.00,030.5,030.0,000.0,038.5,032.3,019.6,0000.0,0015.29,0004.14,0002.90
2024-05-29 02:50:00,SystemResetWarning,0832.7,5.00,000.00,030.5,030.0,000.0,038.6,032.3,019.6,0000.0,0015.60,0004.15,0002.92
2024-05-29 02:51:00,SystemResetWarning,0832.7,5.00,000.00,030.6,030.1,000.0,038.6,032.3,019.6,0000.0,0015.86,0004.17,0002.94
2024-05-29 02:52:00,SystemResetWarning,0832.6,5.01,000.00,030.6,030.1,000.0,038.7,032.3,019.4,0000.0,0016.30,0004.20,0002.95
2024-05-29 02:53:00,SystemResetWarning,0832.7,5.01,000.00,030.6,030.1,000.0,038.7,032.4,019.3,0000.0,0015.59,0004.19,0002.95
2024-05-29 02:54:00,SystemResetWarning,0832.7,4.99,000.00,030.7,030.1,000.0,038.7,032.3,019.2,0000.0,0014.98,0004.17,0002.95
2024-05-29 02:55:00,SystemResetWarning,0832.7,4.98,000.00,030.5,028.0,000.0,038.8,031.4,019.4,0000.0,0015.00,0004.21,0002.95
2024-05-29 02:56:00,SystemResetWarning,0832.7,5.03,000.00,030.0,026.4,000.0,038.8,030.5,019.9,0000.0,0015.72,0004.24,0002.96
2024-05-29 02:57:00,SystemResetWarning,0832.6,5.00,000.00,029.8,026.5,000.0,038.7,030.5,020.2,0000.0,0015.02,0004.28,0002.96
2024-05-29 02:58:00,SystemResetWarning,0832.6,5.00,000.00,029.7,027.0,000.0,038.5,030.7,020.3,0000.0,0014.75,0004.31,0002.96
2024-05-29 02:59:00,SystemResetWarning,0832.7,5.00,000.00,029.7,027.4,000.0,038.4,030.9,020.3,0000.0,0015.39,0004.35,0002.97
